QPF
0.08 0.12 0.16 0.16 0.11 0.11 0.11 0.10 0.10 0.07 0.06 0.05 0.04 0.03 0.02 0.02 0.02 0.02 0.02 0.02 0.02 0.02 0.01 0.00 0.00 0.00 0.00 0.00 0.00 0.00 0.00 0.00 0.00 0.00 0.00 0.00 0.00 0.00 0.00 0.00 0.00 0.00 0.00 0.00
0.07 0.06 0.08 0.07 0.08 0.10 0.10 0.09 0.08 0.08 0.05 0.03 0.02 0.02 0.01 0.01 0.01 0.01 0.01 0.02 0.02 0.02 0.02 0.01 0.00 0.00 0.00 0.00 0.00 0.00 0.00 0.00 0.00 0.00 0.00 0.00 0.00 0.00 0.00 0.00 0.00 0.00 0.00 0.00
0.04 0.03 0.02 0.05 0.09 0.08 0.09 0.08 0.08 0.08 0.04 0.03 0.01 0.01 0.01 0.01 0.01 0.01 0.01 0.01 0.02 0.02 0.02 0.01 0.00 0.00 0.00 0.00 0.00 0.00 0.00 0.00 0.00 0.00 0.00 0.00 0.00 0.00 0.00 0.00 0.00 0.00 0.00 0.01
0.04 0.03 0.04 0.06 0.07 0.05 0.07 0.05 0.03 0.03 0.04 0.03 0.01 0.01 0.00 0.00 0.00 0.00 0.01 0.02 0.01 0.01 0.01 0.01 0.01 0.00 0.00 0.00 0.00 0.00 0.00 0.00 0.00 0.00 0.00 0.00 0.00 0.00 0.00 0.00 0.00 0.00 0.00 0.01
0.04 0.03 0.03 0.03 0.03 0.02 0.03 0.02 0.01 0.01 0.01 0.01 0.01 0.01 0.00 0.00 0.00 0.00 0.00 0.00 0.00 0.00 0.01 0.01 0.01 0.00 0.00 0.00 0.00 0.00 0.00 0.00 0.00 0.00 0.00 0.00 0.00 0.00 0.00 0.00 0.00 0.00 0.00 0.00
0.03 0.02 0.02 0.02 0.01 0.01 0.01 0.00 0.00 0.00 0.00 0.00 0.00 0.00 0.00 0.00 0.00 0.00 0.00 0.00 0.00 0.00 0.00 0.00 0.00 0.00 0.00 0.00 0.00 0.00 0.00 0.00 0.00 0.00 0.00 0.00 0.00 0.00 0.00 0.00 0.00 0.00 0.00 0.00
0.01 0.01 0.01 0.00 0.01 0.01 0.00 0.01 0.00 0.01 0.01 0.01 0.00 0.00 0.00 0.00 0.00 0.00 0.00 0.00 0.00 0.00 0.00 0.00 0.00 0.00 0.00 0.00 0.00 0.00 0.00 0.00 0.00 0.00 0.00 0.00 0.00 0.00 0.00 0.00 0.00 0.00 0.00 0.00
0.00 0.00 0.00 0.00 0.00 0.00 0.00 0.01 0.01 0.03 0.02 0.01 0.00 0.00 0.00 0.00 0.00 0.00 0.00 0.00 0.00 0.00 0.00 0.00 0.00 0.00 0.00 0.00 0.00 0.00 0.00 0.00 0.00 0.00 0.00 0.00 0.00 0.00 0.00 0.00 0.00 0.00 0.00 0.00
0.00 0.00 0.00 0.00 0.00 0.00 0.00 0.00 0.00 0.01 0.01 0.00 0.00 0.00 0.00 0.00 0.00 0.00 0.00 0.00 0.00 0.00 0.00 0.00 0.00 0.00 0.00 0.00 0.00 0.00 0.00 0.00 0.00 0.00 0.00 0.00 0.00 0.00 0.00 0.00 0.00 0.00 0.00 0.00
0.00 0.00 0.01 0.00 0.00 0.00 0.00 0.00 0.00 0.00 0.00 0.00 0.00 0.00 0.00 0.00 0.00 0.00 0.00 0.00 0.00 0.00 0.00 0.00 0.00 0.00 0.00 0.00 0.00 0.00 0.00 0.00 0.00 0.00 0.00 0.00 0.00 0.00 0.00 0.00 0.00 0.00 0.00 0.00
0.00 0.00 0.00 0.01 0.00 0.00 0.00 0.00 0.00 0.00 0.00 0.00 0.00 0.01 0.00 0.00 0.00 0.00 0.00 0.00 0.00 0.00 0.00 0.00 0.00 0.00 0.00 0.00 0.00 0.00 0.00 0.00 0.00 0.00 0.00 0.00 0.00 0.00 0.00 0.00 0.00 0.00 0.00 0.00
0.00 0.00 0.00 0.00 0.00 0.00 0.00 0.00 0.00 0.00 0.00 0.00 0.00 0.00 0.00 0.00 0.00 0.00 0.00 0.00 0.00 0.00 0.00 0.00 0.00 0.00 0.00 0.00 0.00 0.00 0.00 0.00 0.00 0.00 0.00 0.00 0.00 0.00 0.00 0.00 0.00 0.00 0.00 0.00
0.00 0.00 0.00 0.01 0.01 0.00 0.00 0.00 0.00 0.00 0.00 0.00 0.00 0.00 0.00 0.00 0.00 0.00 0.00 0.00 0.00 0.00 0.00 0.00 0.00 0.00 0.00 0.00 0.00 0.00 0.00 0.00 0.00 0.00 0.00 0.00 0.00 0.00 0.00 0.00 0.00 0.00 0.00 0.00
0.00 0.00 0.00 0.01 0.01 0.00 0.00 0.00 0.00 0.00 0.00 0.00 0.00 0.00 0.00 0.00 0.00 0.00 0.00 0.00 0.00 0.00 0.00 0.00 0.00 0.00 0.00 0.00 0.00 0.00 0.00 0.00 0.00 0.00 0.00 0.00 0.00 0.00 0.00 0.00 0.00 0.00 0.00 0.00
0.00 0.00 0.00 0.00 0.00 0.00 0.00 0.00 0.00 0.00 0.00 0.00 0.00 0.00 0.00 0.00 0.00 0.00 0.00 0.00 0.00 0.00 0.00 0.00 0.00 0.00 0.00 0.00 0.00 0.00 0.00 0.00 0.00 0.00 0.00 0.00 0.00 0.00 0.00 0.00 0.00 0.00 0.00 0.00
0.00 0.00 0.00 0.00 0.00 0.00 0.00 0.00 0.00 0.00 0.00 0.00 0.00 0.00 0.00 0.00 0.00 0.00 0.00 0.00 0.00 0.00 0.00 0.00 0.00 0.00 0.00 0.00 0.00 0.00 0.00 0.00 0.00 0.00 0.00 0.00 0.00 0.00 0.00 0.00 0.00 0.00 0.00 0.00
0.00 0.00 0.00 0.00 0.00 0.00 0.00 0.00 0.00 0.00 0.00 0.00 0.00 0.00 0.00 0.00 0.00 0.00 0.00 0.00 0.00 0.00 0.00 0.00 0.00 0.00 0.00 0.00 0.00 0.00 0.00 0.00 0.00 0.00 0.00 0.00 0.00 0.00 0.00 0.00 0.00 0.00 0.00 0.00
0.00 0.00 0.00 0.00 0.00 0.00 0.00 0.00 0.00 0.00 0.00 0.00 0.00 0.00 0.00 0.00 0.00 0.00 0.00 0.00 0.00 0.00 0.00 0.00 0.00 0.00 0.00 0.00 0.00 0.00 0.00 0.00 0.00 0.00 0.00 0.00 0.00 0.00 0.00 0.00 0.00 0.00 0.00 0.00
0.00 0.00 0.00 0.00 0.00 0.00 0.00 0.00 0.00 0.00 0.00 0.00 0.00 0.00 0.00 0.00 0.00 0.00 0.00 0.00 0.00 0.00 0.00 0.00 0.00 0.00 0.00 0.00 0.00 0.00 0.00 0.00 0.00 0.00 0.00 0.00 0.00 0.00 0.00 0.00 0.00 0.00 0.00 0.00
0.00 0.00 0.00 0.00 0.00 0.00 0.00 0.00 0.00 0.00 0.01 0.00 0.00 0.00 0.00 0.00 0.00 0.00 0.00 0.00 0.00 0.00 0.00 0.00 0.00 0.00 0.00 0.00 0.00 0.00 0.00 0.00 0.00 0.00 0.00 0.00 0.00 0.00 0.00 0.00 0.00 0.00 0.00 0.00
0.00 0.00 0.00 0.00 0.00 0.00 0.00 0.00 0.00 0.01 0.01 0.00 0.00 0.00 0.00 0.00 0.00 0.00 0.00 0.00 0.00 0.00 0.00 0.00 0.00 0.00 0.00 0.00 0.00 0.00 0.00 0.00 0.00 0.00 0.00 0.00 0.00 0.00 0.00 0.00 0.00 0.00 0.00 0.00
0.00 0.00 0.00 0.00 0.00 0.00 0.00 0.00 0.00 0.00 0.00 0.00 0.00 0.00 0.00 0.00 0.00 0.00 0.00 0.00 0.00 0.00 0.00 0.00 0.00 0.00 0.00 0.00 0.00 0.00 0.00 0.00 0.00 0.00 0.00 0.00 0.00 0.00 0.00 0.00 0.00 0.00 0.00 0.00
0.00 0.00 0.00 0.00 0.00 0.00 0.00 0.00 0.00 0.00 0.00 0.00 0.00 0.00 0.00 0.00 0.00 0.00 0.00 0.00 0.00 0.00 0.00 0.00 0.00 0.00 0.00 0.00 0.00 0.00 0.00 0.00 0.00 0.00 0.00 0.00 0.00 0.00 0.00 0.00 0.00 0.00 0.00 0.00
0.00 0.00 0.00 0.00 0.00 0.00 0.00 0.00 0.00 0.00 0.00 0.00 0.00 0.00 0.00 0.00 0.00 0.00 0.00 0.00 0.00 0.00 0.00 0.00 0.00 0.00 0.00 0.00 0.00 0.00 0.00 0.00 0.00 0.00 0.00 0.00 0.00 0.00 0.00 0.00 0.00 0.00 0.00 0.00
0.00 0.00 0.00 0.00 0.00 0.00 0.00 0.00 0.00 0.00 0.00 0.00 0.00 0.00 0.00 0.00 0.00 0.00 0.00 0.00 0.00 0.00 0.00 0.00 0.00 0.00 0.00 0.00 0.00 0.00 0.00 0.00 0.00 0.00 0.00 0.00 0.00 0.00 0.00 0.00 0.00 0.00 0.00 0.00
0.00 0.00 0.00 0.00 0.00 0.00 0.00 0.00 0.00 0.00 0.00 0.00 0.00 0.00 0.00 0.00 0.00 0.00 0.00 0.00 0.00 0.00 0.00 0.00 0.00 0.00 0.00 0.00 0.00 0.00 0.00 0.00 0.00 0.00 0.00 0.00 0.00 0.00 0.00 0.00 0.00 0.00 0.00 0.00
MSLP
1012.85 1013.64 1014.23 1014.63 1014.85 1014.95 1014.94 1014.85 1014.70 1014.47 1014.14 1013.70 1013.15 1012.51 1011.83 1011.16 1010.57 1010.11 1009.81 1009.70 1009.75 1009.92 1010.15 1010.40 1010.62 1010.79 1010.91 1011.01 1011.12 1011.27 1011.49 1011.79 1012.14 1012.51 1012.86 1013.14 1013.31 1013.36 1013.27 1013.08 1012.81 1012.51 1012.21 1011.95
1013.20 1013.85 1014.30 1014.57 1014.71 1014.77 1014.79 1014.78 1014.73 1014.62 1014.40 1014.04 1013.52 1012.86 1012.11 1011.33 1010.61 1010.04 1009.65 1009.47 1009.49 1009.66 1009.92 1010.21 1010.46 1010.65 1010.78 1010.87 1010.97 1011.12 1011.34 1011.65 1012.04 1012.47 1012.88 1013.22 1013.45 1013.53 1013.46 1013.26 1012.98 1012.66 1012.34 1012.06
1013.31 1013.79 1014.08 1014.24 1014.33 1014.40 1014.50 1014.62 1014.74 1014.79 1014.71 1014.45 1013.97 1013.28 1012.45 1011.56 1010.70 1009.99 1009.48 1009.22 1009.20 1009.36 1009.65 1009.97 1010.27 1010.49 1010.65 1010.76 1010.85 1010.99 1011.21 1011.54 1011.95 1012.41 1012.86 1013.25 1013.52 1013.64 1013.60 1013.42 1013.14 1012.82 1012.50 1012.21
1013.17 1013.47 1013.62 1013.69 1013.77 1013.92 1014.15 1014.47 1014.79 1015.05 1015.13 1014.98 1014.54 1013.83 1012.91 1011.88 1010.87 1009.99 1009.35 1008.99 1008.90 1009.04 1009.34 1009.70 1010.05 1010.33 1010.53 1010.66 1010.77 1010.91 1011.12 1011.44 1011.85 1012.31 1012.78 1013.20 1013.50 1013.66 1013.65 1013.51 1013.26 1012.96 1012.65 1012.37
1012.87 1012.98 1013.01 1013.05 1013.18 1013.45 1013.87 1014.41 1014.98 1015.46 1015.72 1015.68 1015.28 1014.53 1013.51 1012.33 1011.14 1010.08 1009.28 1008.79 1008.61 1008.72 1009.02 1009.42 1009.82 1010.16 1010.41 1010.59 1010.72 1010.86 1011.06 1011.35 1011.74 1012.18 1012.64 1013.06 1013.38 1013.56 1013.59 1013.49 1013.28 1013.02 1012.74 1012.48
1012.50 1012.46 1012.41 1012.45 1012.67 1013.10 1013.74 1014.53 1015.34 1016.04 1016.47 1016.52 1016.15 1015.35 1014.22 1012.88 1011.50 1010.26 1009.28 1008.65 1008.37 1008.43 1008.72 1009.14 1009.59 1010.00 1010.31 1010.53 1010.69 1010.84 1011.02 1011.28 1011.62 1012.02 1012.44 1012.84 1013.15 1013.35 1013.42 1013.36 1013.20 1012.98 1012.75 1012.53
1012.17 1012.03 1011.95 1012.03 1012.35 1012.95 1013.80 1014.82 1015.85 1016.72 1017.29 1017.42 1017.05 1016.20 1014.96 1013.46 1011.92 1010.50 1009.35 1008.58 1008.20 1008.18 1008.45 1008.89 1009.38 1009.83 1010.20 1010.47 1010.66 1010.81 1010.98 1011.20 1011.48 1011.83 1012.20 1012.56 1012.85 1013.06 1013.15 1013.13 1013.02 1012.87 1012.69 1012.52
1012.00 1011.80 1011.72 1011.86 1012.29 1013.04 1014.06 1015.24 1016.41 1017.41 1018.05 1018.22 1017.84 1016.93 1015.60 1013.99 1012.31 1010.75 1009.47 1008.57 1008.09 1008.01 1008.24 1008.67 1009.18 1009.67 1010.08 1010.39 1010.61 1010.77 1010.92 1011.10 1011.33 1011.61 1011.93 1012.24 1012.51 1012.71 1012.82 1012.84 1012.79 1012.69 1012.57 1012.45
1012.02 1011.82 1011.77 1011.97 1012.49 1013.33 1014.43 1015.68 1016.92 1017.95 1018.60 1018.76 1018.35 1017.40 1016.02 1014.35 1012.59 1010.95 1009.59 1008.61 1008.06 1007.91 1008.09 1008.49 1009.00 1009.50 1009.93 1010.26 1010.49 1010.66 1010.79 1010.95 1011.14 1011.37 1011.64 1011.92 1012.17 1012.36 1012.49 1012.54 1012.53 1012.48 1012.42 1012.35
1012.27 1012.10 1012.09 1012.33 1012.88 1013.73 1014.82 1016.04 1017.23 1018.20 1018.80 1018.90 1018.46 1017.50 1016.12 1014.45 1012.71 1011.07 1009.69 1008.69 1008.09 1007.89 1008.01 1008.36 1008.82 1009.30 1009.72 1010.05 1010.28 1010.45 1010.58 1010.72 1010.89 1011.10 1011.34 1011.60 1011.84 1012.04 1012.18 1012.26 1012.28 1012.27 1012.25 1012.23
1012.70 1012.58 1012.61 1012.86 1013.37 1014.14 1015.13 1016.21 1017.24 1018.07 1018.55 1018.58 1018.11 1017.17 1015.85 1014.28 1012.63 1011.08 1009.77 1008.79 1008.19 1007.94 1008.01 1008.28 1008.66 1009.07 1009.44 1009.74 1009.96 1010.12 1010.25 1010.40 1010.57 1010.78 1011.02 1011.28 1011.52 1011.73 1011.89 1012.00 1012.05 1012.08 1012.08 1012.08
1013.22 1013.17 1013.22 1013.44 1013.86 1014.50 1015.29 1016.15 1016.96 1017.58 1017.91 1017.85 1017.37 1016.49 1015.29 1013.88 1012.41 1011.02 1009.84 1008.94 1008.36 1008.09 1008.08 1008.25 1008.52 1008.83 1009.11 1009.34 1009.52 1009.67 1009.81 1009.96 1010.15 1010.38 1010.65 1010.93 1011.20 1011.44 1011.63 1011.76 1011.84 1011.88 1011.90 1011.91
1013.76 1013.77 1013.83 1013.99 1014.30 1014.74 1015.29 1015.89 1016.43 1016.83 1016.99 1016.84 1016.37 1015.58 1014.55 1013.36 1012.12 1010.95 1009.95 1009.16 1008.62 1008.32 1008.22 1008.27 1008.41 1008.57 1008.73 1008.87 1008.99 1009.11 1009.24 1009.42 1009.64 1009.91 1010.21 1010.53 1010.84 1011.12 1011.34 1011.50 1011.61 1011.66 1011.69 1011.71
1014.25 1014.30 1014.37 1014.47 1014.64 1014.88 1015.19 1015.51 1015.80 1015.97 1015.97 1015.75 1015.31 1014.64 1013.81 1012.86 1011.88 1010.95 1010.13 1009.47 1008.98 1008.65 1008.45 1008.36 1008.33 1008.34 1008.35 1008.37 1008.41 1008.48 1008.60 1008.79 1009.04 1009.34 1009.69 1010.06 1010.41 1010.73 1010.99 1011.19 1011.33 1011.40 1011.44 1011.46
1014.65 1014.75 1014.80 1014.85 1014.90 1014.98 1015.06 1015.15 1015.20 1015.18 1015.05 1014.79 1014.39 1013.86 1013.22 1012.51 1011.78 1011.08 1010.44 1009.89 1009.43 1009.06 1008.76 1008.52 1008.32 1008.15 1008.01 1007.90 1007.84 1007.85 1007.94 1008.12 1008.38 1008.71 1009.09 1009.49 1009.89 1010.25 1010.56 1010.80 1010.97 1011.08 1011.13 1011.16
1014.97 1015.09 1015.16 1015.17 1015.13 1015.08 1015.01 1014.92 1014.80 1014.63 1014.42 1014.13 1013.78 1013.37 1012.90 1012.40 1011.88 1011.37 1010.87 1010.40 1009.95 1009.53 1009.13 1008.74 1008.38 1008.04 1007.74 1007.50 1007.33 1007.27 1007.31 1007.46 1007.70 1008.04 1008.42 1008.85 1009.27 1009.66 1010.01 1010.29 1010.51 1010.67 1010.76 1010.82
1015.24 1015.39 1015.46 1015.46 1015.39 1015.26 1015.10 1014.90 1014.67 1014.43 1014.16 1013.87 1013.57 1013.25 1012.91 1012.56 1012.19 1011.81 1011.40 1010.97 1010.52 1010.04 1009.54 1009.02 1008.51 1008.02 1007.58 1007.22 1006.95 1006.80 1006.77 1006.86 1007.07 1007.36 1007.73 1008.13 1008.55 1008.96 1009.34 1009.67 1009.95 1010.16 1010.32 1010.43
1015.53 1015.68 1015.76 1015.77 1015.70 1015.56 1015.37 1015.13 1014.86 1014.58 1014.29 1014.01 1013.74 1013.48 1013.22 1012.95 1012.67 1012.35 1011.98 1011.56 1011.08 1010.54 1009.95 1009.33 1008.71 1008.11 1007.57 1007.10 1006.74 1006.50 1006.38 1006.39 1006.51 1006.73 1007.03 1007.38 1007.76 1008.16 1008.55 1008.93 1009.26 1009.56 1009.80 1009.99
1015.86 1016.00 1016.09 1016.12 1016.07 1015.96 1015.79 1015.56 1015.30 1015.02 1014.74 1014.47 1014.21 1013.97 1013.74 1013.49 1013.23 1012.92 1012.55 1012.11 1011.59 1011.00 1010.35 1009.67 1008.98 1008.31 1007.69 1007.15 1006.71 1006.38 1006.17 1006.07 1006.07 1006.17 1006.36 1006.62 1006.93 1007.29 1007.67 1008.07 1008.47 1008.84 1009.18 1009.46
1016.25 1016.36 1016.45 1016.49 1016.48 1016.41 1016.28 1016.10 1015.88 1015.62 1015.36 1015.10 1014.84 1014.59 1014.34 1014.08 1013.78 1013.45 1013.04 1012.57 1012.02 1011.40 1010.72 1010.01 1009.29 1008.59 1007.94 1007.36 1006.85 1006.43 1006.11 1005.89 1005.75 1005.71 1005.75 1005.87 1006.08 1006.36 1006.72 1007.12 1007.56 1008.01 1008.45 1008.84
1016.68 1016.74 1016.80 1016.85 1016.86 1016.84 1016.76 1016.63 1016.46 1016.24 1016.00 1015.74 1015.47 1015.20 1014.91 1014.60 1014.26 1013.88 1013.43 1012.92 1012.35 1011.72 1011.04 1010.34 1009.63 1008.94 1008.29 1007.68 1007.12 1006.63 1006.20 1005.84 1005.54 1005.33 1005.20 1005.16 1005.24 1005.42 1005.71 1006.10 1006.57 1007.07 1007.60 1008.09
1017.08 1017.07 1017.09 1017.12 1017.15 1017.16 1017.13 1017.05 1016.93 1016.76 1016.54 1016.29 1016.01 1015.70 1015.37 1015.01 1014.62 1014.19 1013.71 1013.17 1012.59 1011.97 1011.32 1010.65 1009.98 1009.32 1008.68 1008.06 1007.47 1006.91 1006.37 1005.87 1005.42 1005.02 1004.71 1004.51 1004.43 1004.49 1004.70 1005.04 1005.50 1006.05 1006.64 1007.23
1017.38 1017.29 1017.26 1017.26 1017.29 1017.32 1017.33 1017.30 1017.22 1017.09 1016.90 1016.66 1016.37 1016.05 1015.69 1015.29 1014.86 1014.39 1013.89 1013.35 1012.77 1012.18 1011.56 1010.94 1010.31 1009.69 1009.08 1008.46 1007.84 1007.21 1006.58 1005.95 1005.35 1004.78 1004.30 1003.92 1003.68 1003.61 1003.71 1003.99 1004.42 1004.97 1005.60 1006.25
1017.52 1017.36 1017.27 1017.25 1017.27 1017.31 1017.34 1017.35 1017.31 1017.22 1017.06 1016.84 1016.57 1016.24 1015.87 1015.45 1015.00 1014.52 1014.00 1013.46 1012.91 1012.34 1011.76 1011.18 1010.60 1010.01 1009.41 1008.80 1008.16 1007.48 1006.77 1006.03 1005.30 1004.59 1003.94 1003.41 1003.02 1002.81 1002.81 1003.00 1003.37 1003.90 1004.54 1005.23
1017.46 1017.25 1017.12 1017.07 1017.08 1017.13 1017.19 1017.23 1017.23 1017.18 1017.06 1016.87 1016.62 1016.31 1015.94 1015.53 1015.08 1014.59 1014.08 1013.55 1013.01 1012.45 1011.90 1011.35 1010.79 1010.23 1009.64 1009.03 1008.36 1007.65 1006.88 1006.07 1005.24 1004.42 1003.66 1002.99 1002.48 1002.14 1002.02 1002.12 1002.42 1002.90 1003.52 1004.21
1017.21 1016.97 1016.83 1016.77 1016.79 1016.85 1016.93 1017.01 1017.04 1017.03 1016.95 1016.80 1016.58 1016.30 1015.95 1015.55 1015.11 1014.63 1014.13 1013.60 1013.06 1012.51 1011.97 1011.42 1010.87 1010.31 1009.72 1009.10 1008.42 1007.69 1006.89 1006.04 1005.16 1004.28 1003.43 1002.68 1002.06 1001.63 1001.40 1001.40 1001.61 1002.02 1002.59 1003.26
Thickness
5711 5700 5694 5699 5705 5707 5707 5703 5704 5716 5733 5731 5728 5734 5747 5756 5755 5753 5752 5751 5752 5755 5758 5759 5757 5754 5750 5746 5743 5739 5735 5731 5727 5722 5717 5712 5708 5706 5704 5702 5699 5697 5694 5692
5698 5696 5710 5716 5713 5711 5708 5703 5708 5720 5733 5731 5728 5734 5749 5756 5758 5759 5756 5753 5753 5753 5752 5753 5752 5750 5748 5744 5741 5738 5734 5730 5727 5722 5718 5713 5708 5705 5702 5700 5697 5694 5692 5690
5697 5707 5720 5716 5710 5707 5707 5707 5712 5715 5727 5733 5729 5726 5741 5755 5762 5762 5762 5761 5759 5756 5753 5751 5750 5748 5745 5743 5740 5738 5733 5730 5726 5723 5717 5712 5707 5703 5699 5697 5694 5692 5690 5688
5706 5718 5719 5713 5711 5713 5707 5724 5725 5722 5712 5707 5718 5700 5728 5743 5750 5755 5757 5758 5757 5758 5756 5752 5750 5746 5745 5743 5742 5738 5733 5729 5725 5722 5716 5710 5704 5699 5697 5695 5693 5691 5689 5687
5709 5721 5720 5715 5722 5727 5722 5733 5728 5724 5713 5705 5712 5703 5714 5736 5740 5748 5754 5757 5758 5759 5757 5753 5751 5749 5747 5744 5741 5737 5732 5728 5725 5721 5716 5710 5704 5700 5697 5695 5692 5689 5687 5686
5722 5734 5734 5731 5738 5738 5736 5727 5720 5711 5701 5691 5707 5702 5707 5724 5739 5748 5753 5756 5758 5757 5756 5753 5751 5748 5744 5742 5739 5735 5730 5726 5724 5720 5715 5710 5705 5701 5697 5694 5690 5688 5685 5684
5716 5727 5739 5743 5731 5733 5728 5704 5684 5682 5677 5686 5709 5705 5710 5737 5750 5753 5754 5754 5756 5755 5752 5749 5746 5743 5741 5739 5737 5734 5729 5725 5722 5719 5715 5711 5707 5702 5698 5694 5690 5687 5684 5683
5701 5704 5731 5741 5733 5725 5723 5707 5683 5674 5674 5684 5702 5702 5719 5746 5754 5758 5758 5757 5755 5752 5750 5749 5747 5744 5742 5739 5736 5733 5729 5725 5722 5718 5715 5711 5708 5703 5699 5696 5692 5688 5685 5684
5705 5708 5738 5747 5748 5738 5722 5710 5709 5690 5687 5679 5690 5708 5728 5746 5747 5750 5751 5751 5750 5750 5749 5748 5747 5744 5742 5739 5736 5734 5729 5725 5722 5719 5715 5711 5708 5704 5700 5697 5694 5690 5688 5686
5725 5714 5731 5745 5747 5743 5736 5722 5699 5689 5676 5670 5683 5695 5702 5726 5735 5742 5743 5745 5747 5748 5748 5747 5746 5744 5743 5741 5738 5734 5730 5726 5723 5719 5715 5712 5708 5705 5702 5698 5694 5692 5689 5687
5730 5713 5719 5729 5728 5726 5729 5724 5706 5688 5684 5671 5670 5686 5724 5728 5735 5737 5741 5744 5746 5747 5747 5746 5745 5744 5742 5739 5736 5732 5729 5726 5722 5719 5716 5712 5709 5706 5702 5698 5695 5693 5690 5688
5728 5709 5703 5718 5736 5743 5736 5727 5710 5691 5687 5680 5672 5687 5733 5734 5737 5739 5741 5745 5747 5747 5748 5747 5744 5741 5738 5736 5734 5731 5729 5726 5723 5720 5716 5712 5709 5706 5702 5699 5696 5694 5691 5689
5727 5708 5691 5696 5710 5727 5730 5731 5721 5703 5689 5679 5673 5691 5731 5733 5735 5738 5740 5742 5744 5745 5743 5742 5740 5738 5736 5735 5733 5731 5728 5726 5724 5720 5716 5712 5708 5705 5702 5699 5697 5694 5692 5689
5731 5708 5696 5690 5696 5711 5716 5723 5724 5706 5686 5684 5689 5697 5716 5724 5727 5731 5735 5737 5739 5740 5739 5737 5735 5735 5735 5734 5733 5731 5728 5726 5723 5719 5715 5711 5708 5706 5703 5700 5697 5694 5692 5689
5724 5707 5710 5711 5717 5718 5717 5717 5718 5710 5702 5692 5698 5701 5710 5718 5723 5727 5731 5732 5733 5733 5733 5733 5732 5731 5731 5731 5730 5729 5728 5725 5723 5718 5714 5711 5709 5706 5702 5699 5696 5694 5691 5689
5715 5708 5706 5705 5715 5713 5710 5713 5713 5712 5709 5702 5701 5702 5716 5719 5722 5722 5724 5725 5725 5726 5729 5730 5730 5730 5729 5729 5728 5727 5726 5724 5722 5718 5714 5712 5708 5704 5701 5698 5695 5692 5690 5687
5706 5702 5695 5688 5698 5704 5694 5706 5708 5705 5706 5703 5694 5700 5711 5713 5714 5714 5715 5717 5718 5720 5724 5726 5727 5728 5729 5729 5728 5726 5725 5723 5719 5716 5714 5710 5706 5703 5700 5697 5693 5690 5687 5685
5703 5695 5683 5680 5687 5680 5693 5712 5711 5702 5698 5700 5700 5702 5706 5708 5711 5712 5713 5711 5712 5715 5718 5721 5724 5726 5728 5728 5727 5726 5723 5719 5716 5713 5711 5708 5704 5701 5698 5694 5691 5688 5685 5682
5706 5694 5679 5670 5671 5677 5694 5706 5706 5696 5685 5692 5693 5696 5700 5704 5703 5701 5706 5707 5708 5711 5714 5717 5720 5722 5723 5723 5722 5720 5717 5715 5712 5710 5708 5706 5703 5699 5695 5691 5689 5686 5683 5680
5702 5692 5677 5666 5666 5663 5681 5701 5708 5696 5671 5684 5686 5686 5689 5690 5676 5681 5696 5701 5704 5706 5709 5711 5714 5715 5715 5716 5716 5713 5711 5709 5708 5708 5707 5705 5702 5697 5694 5690 5687 5684 5681 5678
5686 5678 5669 5661 5658 5665 5681 5693 5694 5666 5660 5676 5678 5677 5677 5672 5670 5677 5687 5692 5695 5697 5700 5703 5704 5704 5706 5707 5707 5705 5704 5704 5706 5705 5703 5701 5698 5696 5692 5688 5685 5681 5678 5674
5674 5667 5661 5653 5650 5655 5678 5679 5667 5661 5668 5669 5669 5669 5668 5668 5671 5674 5677 5679 5682 5685 5689 5691 5692 5693 5695 5696 5697 5697 5697 5700 5699 5698 5696 5695 5694 5692 5689 5684 5680 5677 5673 5669
5667 5666 5659 5655 5654 5662 5668 5667 5667 5665 5660 5660 5659 5660 5660 5659 5659 5661 5664 5666 5668 5671 5674 5677 5678 5680 5683 5685 5686 5686 5689 5690 5690 5689 5689 5688 5688 5686 5684 5680 5675 5671 5668 5664
5660 5662 5655 5650 5654 5656 5657 5658 5657 5656 5652 5652 5651 5650 5649 5646 5647 5647 5649 5652 5654 5656 5659 5662 5664 5666 5669 5673 5675 5677 5679 5679 5679 5679 5680 5680 5679 5677 5676 5674 5672 5668 5664 5660
5651 5650 5642 5639 5643 5645 5646 5645 5644 5644 5643 5641 5640 5638 5636 5634 5633 5633 5633 5635 5638 5641 5643 5646 5648 5651 5655 5660 5662 5665 5666 5668 5668 5669 5670 5671 5671 5670 5667 5666 5665 5664 5663 5661
5643 5640 5633 5632 5636 5630 5631 5634 5634 5632 5630 5628 5626 5623 5622 5619 5618 5618 5618 5620 5622 5624 5627 5630 5633 5637 5642 5646 5649 5653 5654 5656 5657 5658 5659 5660 5660 5660 5658 5655 5652 5654 5654 5655